sat.trackr.live / text

‹ back to catalog

STARLINK-31875

NORAD 59674 · 2024-084W

PAYLOAD ACTIVE UNKNOWN

§ Identity

Operator
Country
US
Launch date
2024-05-06
Launch site
AFETR
Launch vehicle
Mass (kg)
RCS (m²)

Purposes: comms

External: N2YO · Heavens-Above · Gunter

§ Orbital elements

Epoch: 2026-09-21T18:40:46.716672Z

Period
94.27 min
Inclination
43.0009°
Eccentricity
0.0000825
Mean motion
15.27581951 rev/d
Perigee alt
482.5 km
Apogee alt
483.6 km
Semi-major
6,861.2 km
B*
3.0934e-5
RAAN
10.8192°
Arg perigee
251.9376°
Mean anomaly
108.1386°
Rev number
13,440

§ Raw data

STARLINK-318751 59674U 24084W   26264.77831848  .00000589  00000+0  30934-4 0  99992 59674  43.0009  10.8192 0000825 251.9376 108.1386 15.27581951134401

JSON: /api/v1/satellites/59674 · /tle

For live sub-satellite position, see the globe view (requires WebGL).

§ Visibility from observer

Set your observer location to see the next 7 days of passes ≥ 10°. The values pass through the URL so the page stays shareable.

No JS? Fill the form by hand. The geolocation button needs JavaScript.